Mario Martinez Classic - Inventory

Station: Inventory - T Race

Distance: 10 Miles    

Release: 03-Jun-2020 19:13

Weather Release:    Arrival:

Wind at Release:     Wind at Arrival:

Temp at Release: °    Temp at Arrival: °

Lofts: 63

Birds: 266

Clocked: 255

Birds Inventory Only
Drops Pos Breeder Pigeon Name Color Sex Ent Arrival Speed To Win Elg Pd
1 Thunder Birds Breeding Loft - TX 27765-AU20-ARPU Rock-Et Charley BB H 1 19:17:13.00 4173.913 00:00:00 Yes
2 Tripple M Syndicate - CA 13293-AU20-ARPU SIL H 1 19:17:46.70 3683.293 00:00:34 Yes
3 Sal Perez - CA 0234-AU20-SFR BB H 1 19:17:55.00 3579.661 00:00:42 Yes
4 Nanez Family Loft - WI 0098-AU20-NANZ BB H 1 19:17:55.80 3569.980 00:00:43 Yes
5 Nevarez Loft - CA 0787-AU20-MTZ BC H 1 19:18:19.40 3306.199 00:01:06 Yes
6 Tres Amigos - CA 2544-AU20-COM BB H 1 19:18:22.20 3277.467 00:01:09 Yes
7 Nevarez Loft - CA 0775-AU20-MTZ BB H 2 19:18:40.00 3105.882 00:01:27 Yes
8 H Padilla Y Leo Gomez - CA 0706-AU20-MTZ BC H 1 19:18:43.80 3071.553 00:01:31 Yes
9 Jacks Galaxy - FL 0033-AU20-XXX 17689 x 262 RC H 1 19:18:53.40 2988.115 00:01:40 Yes
10 Mike Cambra - CA 4887-AU20-SOC BC H 1 19:19:08.00 2869.565 00:01:55 Yes
11 Jacks Galaxy - FL 0002-AU20-XXX 43759 x 1360 BB H 2 19:19:52.80 2558.140 00:02:40 Yes
12 Salvador R / Gustavo G - CA 1553-AU20-MAN BC H 1 19:19:53.50 2553.809 00:02:40 Yes
13 Ismael Franco - CA 0301-AU20-BPRC BB H 1 19:20:21.30 2392.930 00:03:08 Yes
14 Juan Guerrero - CA 0465-AU20-TCH BC H 1 19:20:29.00 2351.893 00:03:16 Yes
15 Salinas Team - CA 0241-AU20-WSJ BB H 1 19:20:48.40 2254.483 00:03:35 Yes
16 Hugo Family Loft - IL 0022-AU20-HRFL BB H 1 19:21:30.90 2066.941 00:04:18 Yes
17 Sal Perez - CA 0223-AU20-SFR BB H 2 19:23:45.20 1636.702 00:06:32 Yes
18 Beto's Loft - CA 2001-AU20-JBL BC H 1 19:23:54.40 1613.692 00:06:41 Yes
19 Tepa Sindicatos - CA 0252-AU20-SG BB H 1 19:24:30.50 1529.327 00:07:17 Yes
20 Savers Pigeons Loft - CA 0408-AU20-BPRC BB H 1 19:26:48.70 1274.285 00:09:36 Yes
21 Tepa Sindicatos - CA 0243-AU20-SG BB H 2 19:26:58.90 1258.791 00:09:46 Yes
22 Larios Loft - CA 2750-AU20-FORT BBWF H 1 19:27:12.70 1238.419 00:10:00 Yes
23 John V. Partridge - CA 2047-AU20-PASO Voyager Champion SLT H 1 19:27:52.80 1182.796 00:10:40 Yes
24 Arturo Serratos Loft - CA 16709-AU20-JEDD BB H 1 19:28:01.80 1170.991 00:10:49 Yes
25 L Fernandez Loft - CA 0532-AU20-TCH BC H 1 19:28:26.60 1139.650 00:11:14 Yes
26 Luis Gante - CA 1122-AU20-SFPC DC H 1 19:28:36.10 1128.085 00:11:23 Yes
27 Renato Reg Loft - CA 0522-AU20-TCH BC H 1 19:28:44.70 1117.815 00:11:32 Yes
28 Cotaloft - CA 0814-AU20-SEL EL BOTAS BBWF H 1 19:28:52.30 1108.894 00:11:39 Yes
29 Whell's Loft - CA 2638-AU20-MTZ โ€œUnder Estimatedโ€ BBWF H 1 19:28:57.50 1102.872 00:11:45 Yes
30 Zabedra Family Loft - CA 4882-AU20-SOC BCWF H 1 19:29:21.30 1076.124 00:12:08 Yes
31 Nanez Family Loft - WI 0193-AU20-NANZ BB H 2 19:29:25.90 1071.103 00:12:13 Yes
32 Zabedra Family Loft - CA 1522-AU20-TCH BB H 2 19:29:28.50 1068.285 00:12:16 Yes
33 L Fernandez Loft - CA 0536-AU20-TCH RC H 2 19:29:39.70 1056.317 00:12:27 Yes
34 John V. Partridge - CA 2044-AU20-PASO Three Times a Lady BC H 2 19:29:45.80 1049.911 00:12:33 Yes
35 Cotaloft - CA 0810-AU20-SEL EL BAGO BC H 2 19:29:50.20 1045.338 00:12:37 Yes
36 Renato Reg Loft - CA 0512-AU20-TCH BC H 2 19:29:58.20 1037.124 00:12:45 Yes
37 Cotaloft - CA 0859-AU20-SEL El Barbas BBWF H 3 19:30:03.20 1032.056 00:12:50 Yes
38 Zabedra Family Loft - CA 4888-AU20-SOC BC H 3 19:30:07.90 1027.337 00:12:55 Yes
39 Sal Perez - CA 0222-AU20-SFR BCWF H 3 19:30:10.70 1024.546 00:12:58 Yes
40 Nanez Family Loft - WI 0176-AU20-NANZ BB H 3 19:30:15.30 1019.994 00:13:02 Yes
41 Mike Cambra - CA 4861-AU20-SOC BC H 2 19:30:16.90 1018.420 00:13:04 Yes
42 Garibay Gomez Loft - CA 20302-AU20-OAK Brian DC C 1 19:30:19.40 1015.971 00:13:06 Yes
43 Don Chayo Loft - CA 0113-AU20-MAN BB H 1 19:30:20.20 1015.189 00:13:07 Yes
44 Freak Yah! - HI 0099-AU20-FIA BC H 1 19:30:25.80 1009.753 00:13:13 Yes
45 L Fernandez Loft - CA 0537-AU20-TCH RC H 3 19:30:26.90 1008.692 00:13:14 Yes
46 Lica Loft - CA 0281-AU20-MTZ BB H 1 19:30:27.40 1008.211 00:13:14 Yes
47 Nanez Family Loft - WI 0161-AU20-NANZ BB H 4 19:30:33.70 1002.183 00:13:21 Yes
48 Tres Amigos - CA 2546-AU20-COM BBWF H 2 19:30:36.50 999.527 00:13:23 Yes
49 Lica Loft - CA 1737-AU20-MTZ BBWF H 2 19:30:39.50 996.697 00:13:26 Yes
50 Tres Amigos - CA 0530-AU20-SBRP BBWF H 3 19:30:39.80 996.414 00:13:27 Yes
51 Jamie Ramirez - CA 0038-AU20-CCU BB H 1 19:30:40.50 995.757 00:13:27 Yes
52 Lito Maniego Loft - CA 0004-AU20-RLDI BC H 1 19:30:40.60 995.663 00:13:28 Yes
53 Tepa Sindicatos - CA 0248-AU20-SG BBWF H 3 19:30:42.80 993.602 00:13:30 Yes
54 Jacks Galaxy - FL 0005-AU20-XXX admiral x 673 BB H 3 19:30:45.20 991.363 00:13:32 Yes
55 Tripple M Syndicate - CA 13299-AU20-ARPU BB H 2 19:30:45.70 990.898 00:13:33 Yes
56 Don Chayo Loft - CA 0750-AU20-MAN RC H 2 19:30:46.50 990.155 00:13:33 Yes
57 Gene Tenbrink - CA 0207-AU20-GENE DC H 1 19:30:47.00 989.691 00:13:34 Yes
58 Salvador R / Gustavo G - CA 23344-AU20-ARPU BCWF H 2 19:30:51.60 985.442 00:13:39 Yes
59 Freak Yah! - HI 0090-AU20-FIA BC H 2 19:30:54.00 983.240 00:13:41 Yes
60 Tepa Sindicatos - CA 0241-AU20-SG BC H 4 19:30:54.60 982.691 00:13:42 Yes
61 Hugo Family Loft - IL 0019-AU20-HRFL BB H 2 19:30:55.50 981.869 00:13:42 Yes
62 K/N Loft - HI 0347-AU20-LEEW BB H 1 19:30:55.70 981.686 00:13:43 Yes
63 Beto's Loft - CA 2010-AU20-JBL BBSP H 2 19:30:56.20 981.230 00:13:43 Yes
64 Hayloft - CA 0146-AU20-GSF BB H 1 19:30:57.40 980.137 00:13:44 Yes
65 Vega Loft - CA 56226-AU20-ARPU BCWF H 1 19:30:59.10 978.593 00:13:46 Yes
66 Palomo Loft - CA 1006-AU20-SFPC BB H 1 19:31:00.70 977.144 00:13:48 Yes
67 Golden State Syndicate - CA 16313-AU20-AA eL TOPACIO! BB H 1 19:31:01.40 976.512 00:13:48 Yes
68 L Fernandez Loft - CA 0533-AU20-TCH SILV H 4 19:31:03.90 974.260 00:13:51 Yes
69 Herrera Loft - CA 0190-AU20-MAN BB H 1 19:31:04.50 973.721 00:13:51 Yes
70 Beto's Loft - CA 2005-AU20-JBL BBWF H 3 19:31:05.60 972.734 00:13:53 Yes
71 Zabedra Family Loft - CA 1524-AU20-TCH BBWF H 4 19:31:06.20 972.197 00:13:53 Yes
72 Salvador R / Gustavo G - CA 2589-AU20-FORT BBWF H 3 19:31:06.50 971.928 00:13:54 Yes
73 Jose Barrera's Loft - CA 2011-AU20-JBL BBTC H 1 19:31:08.10 970.499 00:13:55 Yes
74 Whell's Loft - CA 16323-AU20-AA โ€œ Transporterโ€ BB H 2 19:31:10.40 968.452 00:13:57 Yes
75 Lito Maniego Loft - CA 0008-AU20-RLDI BB H 2 19:31:12.40 966.679 00:13:59 Yes
76 Jose Barrera's Loft - CA 2016-AU20-JBL GRIZ H 2 19:31:14.40 964.912 00:14:01 Yes
77 Lica Loft - CA 0282-AU20-MTZ BB H 3 19:31:15.70 963.767 00:14:03 Yes
78 Sotto & Saleem Loft - CA 0029-AU20-SALE BB H 1 19:31:15.80 963.680 00:14:03 Yes
79 Magallanes Family Loft - CA 0350-AU20-MAGA DARK TOP BCWF H 1 19:31:18.80 961.048 00:14:06 Yes
80 Sotto & Saleem Loft - CA 0008-AU20-SALE BB H 2 19:31:19.50 960.437 00:14:06 Yes
81 Ramirez Loft - TX 22835-AU20-JEDD BB H 1 19:31:20.20 959.825 00:14:07 Yes
82 Don Chayo Loft - CA 0111-AU20-MAN BB H 3 19:31:20.50 959.564 00:14:07 Yes
83 Castellanos Family Loft - CA 0822-AU20-HAN BB H 1 19:31:20.90 959.215 00:14:08 Yes
84 Golden State Syndicate - CA 10410-AU20-FOYS eL Plaridel! BB H 2 19:31:22.40 957.910 00:14:09 Yes
85 Aguilar Loft - CA 0706-AU20-HAN DC H 1 19:31:24.30 956.262 00:14:11 Yes
86 Juan Romo - CA 20214-AU20-OAK BC H 1 19:31:25.20 955.483 00:14:12 Yes
87 H Padilla Y Leo Gomez - CA 0725-AU20-MTZ BB H 2 19:31:26.30 954.533 00:14:13 Yes
88 Beto's Loft - CA 2008-AU20-JBL DC H 4 19:31:30.00 951.351 00:14:17 Yes
89 Jose Barrera's Loft - CA 2017-AU20-JBL WHTE H 3 19:31:30.50 950.923 00:14:18 Yes
90 Gene Tenbrink - CA 0201-AU20-GENE BC H 2 19:31:31.10 950.410 00:14:18 Yes
91 Beto's Loft - CA 2003-AU20-JBL DC H 5 19:31:34.00 947.935 00:14:21 Yes
92 Ponce Loft - CA 1401-AU20-PONC BC H 1 19:31:36.30 945.982 00:14:23 Yes
93 Vm Backyard Loft - CA 0509-AU20-TCH BC H 1 19:31:37.20 945.220 00:14:24 Yes
94 Ramirez Loft - TX 0096-AU20-MEX BB H 2 19:31:37.80 944.713 00:14:25 Yes
95 Juan Romo - CA 20008-AU20-OAK BCWF H 2 19:31:38.30 944.290 00:14:25 Yes
96 Thunder Birds Breeding Loft - TX 80113-AU20-ARPU Sleeper BC H 2 19:31:38.80 943.868 00:14:26 Yes
97 G D L๐Ÿฆ.L O F T ๐Ÿ•Š๐Ÿ•Š๐Ÿ•Š - CA 1615-AU20-JAPA BB H 1 19:31:41.00 942.016 00:14:28 Yes
98 Mendoza / Maravilla - CA 2701-AU20-WSJ BB H 1 19:31:42.10 941.093 00:14:29 Yes
99 G D L๐Ÿฆ.L O F T ๐Ÿ•Š๐Ÿ•Š๐Ÿ•Š - CA 1620-AU20-JAPA BB H 2 19:31:43.70 939.753 00:14:31 Yes
100 Larios Loft - CA 2708-AU20-FORT BC H 2 19:31:44.80 938.834 00:14:32 Yes

There are 266 bird records

Note: These Race Results are unofficial and subject to change until verified by the Race Committee and declared final.

 

 


windy
Click for Forecast for 94533 from weatherUSA